History for KNYNEWYO805

Frying Pan NYC, New York, NY — Current Conditions
Daily Summary for October 20, 2018
  Current: High: Low: Average:
Temperature: 60.8°F 60.8°F 54.3°F 57.5°F
Dew Point: 60.4°F 60.4°F 53.6°F 55.8°F
Humidity: 99% 99% 86% 97%
Wind Speed: - 0.0mph - 0.0mph
Wind Gust: - 0.0mph - -
Wind: N/A - - North
Pressure: 29.01in 29.27in 29.01in -
Precipitation: 0.00in      
Statistics for the rest of the month
    High: Low: Average:
Temperature:   80.8°F 43.5°F 63.5°F
Dew Point:   79.9°F -40.0°F 57.4°F
Humidity:   99.0% 59.0% 88.3%
Wind Speed:   6.9mph from the NNE - 0.3mph
Wind Gust:   6.9mph from the NNE - -
Wind:   - - East
Pressure:   29.80in 28.82in -
Precipitation:   0.00in    
KNYNEWYO805 Weather Graph
Tabular Data for October 20, 2018
Time Temp. Dew Point Pressure Wind Gust Humidity Rainfall Solar Radiation
00:04 57.7°F 53.6°F 29.26in - 86% 0in -9999.00 watts/m^2
00:09 57.7°F 53.6°F 29.26in - 86% 0in -9999.00 watts/m^2
00:14 57.7°F 54°F 29.25in - 87% 0in -9999.00 watts/m^2
00:19 57.7°F 54°F 29.25in - 87% 0in -9999.00 watts/m^2
00:24 57.7°F 54.1°F 29.24in - 88% 0in -9999.00 watts/m^2
00:29 57.7°F 54.1°F 29.25in - 88% 0in -9999.00 watts/m^2
00:34 57.7°F 54.1°F 29.24in - 88% 0in -9999.00 watts/m^2
00:39 57.7°F 54.1°F 29.24in - 88% 0in -9999.00 watts/m^2
00:44 57.7°F 54.1°F 29.23in - 88% 0in -9999.00 watts/m^2
00:49 57.7°F 54.1°F 29.23in - 88% 0in -9999.00 watts/m^2
00:54 57.7°F 54°F 29.23in - 87% 0in -9999.00 watts/m^2
00:59 57.7°F 54.1°F 29.23in - 88% 0in -9999.00 watts/m^2
01:04 57.9°F 54.3°F 29.23in - 88% 0in -9999.00 watts/m^2
01:09 57.9°F 54.3°F 29.23in - 88% 0in -9999.00 watts/m^2
01:14 57.9°F 54.3°F 29.22in - 88% 0in -9999.00 watts/m^2
01:19 57.9°F 54.3°F 29.22in - 88% 0in -9999.00 watts/m^2
01:24 57.9°F 54.1°F 29.21in - 87% 0in -9999.00 watts/m^2
01:29 57.7°F 54.1°F 29.21in - 88% 0in -9999.00 watts/m^2
01:34 57.7°F 54.5°F 29.21in - 89% 0in -9999.00 watts/m^2
01:39 57.7°F 54.1°F 29.21in - 88% 0in -9999.00 watts/m^2
01:44 57.7°F 54.5°F 29.21in - 89% 0in -9999.00 watts/m^2
01:49 57.7°F 54.5°F 29.21in - 89% 0in -9999.00 watts/m^2
01:54 57.7°F 54.5°F 29.20in - 89% 0in -9999.00 watts/m^2
01:59 57.7°F 54.5°F 29.20in - 89% 0in -9999.00 watts/m^2
02:04 57.7°F 54.9°F 29.21in - 90% 0in -9999.00 watts/m^2
02:09 57.7°F 54.9°F 29.21in - 90% 0in -9999.00 watts/m^2
02:14 57.7°F 54.5°F 29.21in - 89% 0in -9999.00 watts/m^2
02:19 57.7°F 54.5°F 29.20in - 89% 0in -9999.00 watts/m^2
02:24 57.6°F 54.3°F 29.20in - 89% 0in -9999.00 watts/m^2
02:29 57.6°F 54.7°F 29.20in - 90% 0in -9999.00 watts/m^2
02:34 57.6°F 54.7°F 29.20in - 90% 0in -9999.00 watts/m^2
02:39 57°F 55°F 29.20in - 93% 0in -9999.00 watts/m^2
02:44 56.3°F 55.2°F 29.19in - 96% 0in -9999.00 watts/m^2
02:49 55.9°F 55.4°F 29.20in - 98% 0in -9999.00 watts/m^2
02:54 55.6°F 55°F 29.20in - 98% 0in -9999.00 watts/m^2
02:59 55.4°F 54.9°F 29.19in - 98% 0in -9999.00 watts/m^2
03:04 55.4°F 54.9°F 29.19in - 98% 0in -9999.00 watts/m^2
03:09 55°F 54.7°F 29.19in - 99% 0in -9999.00 watts/m^2
03:14 54.9°F 54.5°F 29.18in - 99% 0in -9999.00 watts/m^2
03:19 54.9°F 54.5°F 29.18in - 99% 0in -9999.00 watts/m^2
03:24 54.7°F 54.3°F 29.17in - 99% 0in -9999.00 watts/m^2
03:29 54.5°F 54.1°F 29.16in - 99% 0in -9999.00 watts/m^2
03:34 54.5°F 54.1°F 29.16in - 99% 0in -9999.00 watts/m^2
03:39 54.3°F 54°F 29.16in - 99% 0in -9999.00 watts/m^2
03:44 54.3°F 54°F 29.16in - 99% 0in -9999.00 watts/m^2
03:49 54.3°F 54°F 29.16in - 99% 0in -9999.00 watts/m^2
03:54 54.3°F 54°F 29.16in - 99% 0in -9999.00 watts/m^2
03:59 54.3°F 54°F 29.15in - 99% 0in -9999.00 watts/m^2
04:04 54.5°F 54.1°F 29.15in - 99% 0in -9999.00 watts/m^2
04:09 54.5°F 54.1°F 29.15in - 99% 0in -9999.00 watts/m^2
04:14 54.7°F 54.3°F 29.15in - 99% 0in -9999.00 watts/m^2
04:19 54.7°F 54.3°F 29.15in - 99% 0in -9999.00 watts/m^2
04:24 54.7°F 54.3°F 29.14in - 99% 0in -9999.00 watts/m^2
04:29 54.9°F 54.5°F 29.14in - 99% 0in -9999.00 watts/m^2
04:34 55°F 54.7°F 29.14in - 99% 0in -9999.00 watts/m^2
04:39 55°F 54.7°F 29.13in - 99% 0in -9999.00 watts/m^2
04:44 55.2°F 54.9°F 29.14in - 99% 0in -9999.00 watts/m^2
04:49 54.9°F 54.5°F 29.13in - 99% 0in -9999.00 watts/m^2
04:54 54.9°F 54.5°F 29.13in - 99% 0in -9999.00 watts/m^2
04:59 54.9°F 54.5°F 29.12in - 99% 0in -9999.00 watts/m^2
05:04 54.7°F 54.3°F 29.12in - 99% 0in -9999.00 watts/m^2
05:09 54.5°F 54.1°F 29.13in - 99% 0in -9999.00 watts/m^2
05:14 54.5°F 54.1°F 29.13in - 99% 0in -9999.00 watts/m^2
05:19 54.5°F 54.1°F 29.12in - 99% 0in -9999.00 watts/m^2
05:24 54.5°F 54.1°F 29.12in - 99% 0in -9999.00 watts/m^2
05:29 54.5°F 54.1°F 29.11in - 99% 0in -9999.00 watts/m^2
05:34 54.3°F 54°F 29.12in - 99% 0in -9999.00 watts/m^2
05:39 54.5°F 54.1°F 29.11in - 99% 0in -9999.00 watts/m^2
05:44 54.5°F 54.1°F 29.11in - 99% 0in -9999.00 watts/m^2
05:49 54.7°F 54.3°F 29.11in - 99% 0in -9999.00 watts/m^2
05:54 54.7°F 54.3°F 29.12in - 99% 0in -9999.00 watts/m^2
05:59 54.9°F 54.5°F 29.11in - 99% 0in -9999.00 watts/m^2
06:04 55°F 54.7°F 29.11in - 99% 0in -9999.00 watts/m^2
06:09 55°F 54.7°F 29.11in - 99% 0in -9999.00 watts/m^2
06:14 55.2°F 54.9°F 29.11in - 99% 0in -9999.00 watts/m^2
06:19 55.4°F 55°F 29.10in - 99% 0in -9999.00 watts/m^2
06:24 55.4°F 55°F 29.11in - 99% 0in -9999.00 watts/m^2
06:29 55.4°F 55°F 29.10in - 99% 0in -9999.00 watts/m^2
06:34 55.4°F 55°F 29.10in - 99% 0in -9999.00 watts/m^2
06:39 55.4°F 55°F 29.10in - 99% 0in -9999.00 watts/m^2
06:44 55.6°F 55.2°F 29.10in - 99% 0in -9999.00 watts/m^2
06:49 55.6°F 55.2°F 29.10in - 99% 0in -9999.00 watts/m^2
06:54 55.6°F 55.2°F 29.11in - 99% 0in -9999.00 watts/m^2
06:59 55.6°F 55.2°F 29.11in - 99% 0in -9999.00 watts/m^2
07:04 55.8°F 55.4°F 29.10in - 99% 0in -9999.00 watts/m^2
07:09 55.6°F 55.2°F 29.10in - 99% 0in -9999.00 watts/m^2
07:14 55.8°F 55.4°F 29.10in - 99% 0in -9999.00 watts/m^2
07:19 55.8°F 55.4°F 29.11in - 99% 0in -9999.00 watts/m^2
07:24 55.8°F 55.4°F 29.11in - 99% 0in -9999.00 watts/m^2
07:29 55.8°F 55.4°F 29.11in - 99% 0in -9999.00 watts/m^2
07:34 55.8°F 55.4°F 29.12in - 99% 0in -9999.00 watts/m^2
07:39 55.8°F 55.4°F 29.12in - 99% 0in -9999.00 watts/m^2
07:44 55.8°F 55.4°F 29.11in - 99% 0in -9999.00 watts/m^2
07:49 55.6°F 55.2°F 29.12in - 99% 0in -9999.00 watts/m^2
07:54 55.6°F 55.2°F 29.12in - 99% 0in -9999.00 watts/m^2
07:59 55.6°F 55.2°F 29.12in - 99% 0in -9999.00 watts/m^2
08:04 55.6°F 55.2°F 29.12in - 99% 0in -9999.00 watts/m^2
08:09 55.6°F 55.2°F 29.12in - 99% 0in -9999.00 watts/m^2
08:14 55.6°F 55.2°F 29.12in - 99% 0in -9999.00 watts/m^2
08:19 55.6°F 55.2°F 29.12in - 99% 0in -9999.00 watts/m^2
08:24 55.6°F 55.2°F 29.12in - 99% 0in -9999.00 watts/m^2
08:29 55.6°F 55.2°F 29.13in - 99% 0in -9999.00 watts/m^2
08:34 55.4°F 55°F 29.12in - 99% 0in -9999.00 watts/m^2
08:39 55.4°F 55°F 29.12in - 99% 0in -9999.00 watts/m^2
08:44 55.4°F 55°F 29.12in - 99% 0in -9999.00 watts/m^2
08:49 55.6°F 55.2°F 29.12in - 99% 0in -9999.00 watts/m^2
08:54 55.6°F 55.2°F 29.13in - 99% 0in -9999.00 watts/m^2
08:59 55.6°F 55.2°F 29.13in - 99% 0in -9999.00 watts/m^2
09:04 55.6°F 55.2°F 29.12in - 99% 0in -9999.00 watts/m^2
09:09 55.8°F 55.4°F 29.12in - 99% 0in -9999.00 watts/m^2
09:14 55.8°F 55.4°F 29.12in - 99% 0in -9999.00 watts/m^2
09:19 55.8°F 55.4°F 29.12in - 99% 0in -9999.00 watts/m^2
09:24 55.9°F 55.6°F 29.11in - 99% 0in -9999.00 watts/m^2
09:29 55.9°F 55.6°F 29.12in - 99% 0in -9999.00 watts/m^2
09:34 56.1°F 55.8°F 29.11in - 99% 0in -9999.00 watts/m^2
09:39 56.1°F 55.8°F 29.11in - 99% 0in -9999.00 watts/m^2
09:44 55.8°F 55.4°F 29.11in - 99% 0in -9999.00 watts/m^2
09:49 55.4°F 55°F 29.11in - 99% 0in -9999.00 watts/m^2
09:54 55.4°F 55°F 29.10in - 99% 0in -9999.00 watts/m^2
09:59 55.4°F 55°F 29.10in - 99% 0in -9999.00 watts/m^2
10:04 55.8°F 55.4°F 29.10in - 99% 0in -9999.00 watts/m^2
10:09 55.9°F 55.6°F 29.10in - 99% 0in -9999.00 watts/m^2
10:14 55.8°F 55.4°F 29.10in - 99% 0in -9999.00 watts/m^2
10:19 55.6°F 55.2°F 29.09in - 99% 0in -9999.00 watts/m^2
10:24 55.8°F 55.4°F 29.08in - 99% 0in -9999.00 watts/m^2
10:29 55.8°F 55.4°F 29.09in - 99% 0in -9999.00 watts/m^2
10:34 56.1°F 55.8°F 29.10in - 99% 0in -9999.00 watts/m^2
10:39 56.5°F 56.1°F 29.10in - 99% 0in -9999.00 watts/m^2
10:44 56.7°F 56.3°F 29.09in - 99% 0in -9999.00 watts/m^2
10:49 56.8°F 56.5°F 29.09in - 99% 0in -9999.00 watts/m^2
10:54 57.2°F 56.8°F 29.09in - 99% 0in -9999.00 watts/m^2
10:59 57.2°F 56.8°F 29.09in - 99% 0in -9999.00 watts/m^2
11:04 57.4°F 57°F 29.09in - 99% 0in -9999.00 watts/m^2
11:09 57.6°F 57.2°F 29.09in - 99% 0in -9999.00 watts/m^2
11:14 57.6°F 57.2°F 29.09in - 99% 0in -9999.00 watts/m^2
11:19 57.7°F 57.4°F 29.09in - 99% 0in -9999.00 watts/m^2
11:24 57.9°F 57.6°F 29.09in - 99% 0in -9999.00 watts/m^2
11:29 58.1°F 57.7°F 29.09in - 99% 0in -9999.00 watts/m^2
11:34 58.1°F 57.7°F 29.09in - 99% 0in -9999.00 watts/m^2
11:39 58.5°F 58.1°F 29.08in - 99% 0in -9999.00 watts/m^2
11:44 58.5°F 58.1°F 29.08in - 99% 0in -9999.00 watts/m^2
11:49 58.6°F 58.3°F 29.09in - 99% 0in -9999.00 watts/m^2
11:54 58.6°F 58.3°F 29.09in - 99% 0in -9999.00 watts/m^2
11:59 58.5°F 58.1°F 29.09in - 99% 0in -9999.00 watts/m^2
12:04 58.6°F 58.3°F 29.08in - 99% 0in -9999.00 watts/m^2
12:09 58.6°F 58.3°F 29.08in - 99% 0in -9999.00 watts/m^2
12:14 58.8°F 58.5°F 29.08in - 99% 0in -9999.00 watts/m^2
12:19 59°F 58.6°F 29.08in - 99% 0in -9999.00 watts/m^2
12:24 59°F 58.6°F 29.08in - 99% 0in -9999.00 watts/m^2
12:29 59°F 58.6°F 29.08in - 99% 0in -9999.00 watts/m^2
12:34 59°F 58.6°F 29.07in - 99% 0in -9999.00 watts/m^2
12:39 59°F 58.6°F 29.07in - 99% 0in -9999.00 watts/m^2
12:44 59.2°F 58.8°F 29.07in - 99% 0in -9999.00 watts/m^2
12:49 59.2°F 58.8°F 29.06in - 99% 0in -9999.00 watts/m^2
12:54 59.2°F 58.8°F 29.07in - 99% 0in -9999.00 watts/m^2
12:59 59.2°F 58.8°F 29.06in - 99% 0in -9999.00 watts/m^2
13:04 59.2°F 58.8°F 29.06in - 99% 0in -9999.00 watts/m^2
13:09 59.4°F 59°F 29.05in - 99% 0in -9999.00 watts/m^2
13:14 59.5°F 59.2°F 29.05in - 99% 0in -9999.00 watts/m^2
13:19 59.5°F 59.2°F 29.06in - 99% 0in -9999.00 watts/m^2
13:24 59.5°F 59.2°F 29.06in - 99% 0in -9999.00 watts/m^2
13:29 59.4°F 59°F 29.05in - 99% 0in -9999.00 watts/m^2
13:34 59.4°F 59°F 29.04in - 99% 0in -9999.00 watts/m^2
13:39 59.4°F 59°F 29.05in - 99% 0in -9999.00 watts/m^2
13:44 59.5°F 59.2°F 29.04in - 99% 0in -9999.00 watts/m^2
13:49 59.5°F 59.2°F 29.03in - 99% 0in -9999.00 watts/m^2
13:54 59.5°F 59.2°F 29.04in - 99% 0in -9999.00 watts/m^2
13:59 59.5°F 59.2°F 29.03in - 99% 0in -9999.00 watts/m^2
14:04 59.7°F 59.4°F 29.03in - 99% 0in -9999.00 watts/m^2
14:09 59.7°F 59.4°F 29.03in - 99% 0in -9999.00 watts/m^2
14:14 59.9°F 59.5°F 29.02in - 99% 0in -9999.00 watts/m^2
14:19 60.1°F 59.7°F 29.02in - 99% 0in -9999.00 watts/m^2
14:24 60.1°F 59.7°F 29.02in - 99% 0in -9999.00 watts/m^2
14:29 60.1°F 59.7°F 29.01in - 99% 0in -9999.00 watts/m^2
14:34 60.4°F 60.1°F 29.01in - 99% 0in -9999.00 watts/m^2
14:39 60.6°F 60.3°F 29.01in - 99% 0in -9999.00 watts/m^2
14:44 60.8°F 60.4°F 29.01in - 99% 0in -9999.00 watts/m^2
14:49 60.8°F 60.4°F 29.01in - 99% 0in -9999.00 watts/m^2
Comma Delimited File
Powered by Weather Underground, Inc.